Burnsville, North Carolina, United States (28714)
Lat: 35.92N, Lon: 82.3W
Wx Zone: NCZ049
Local Info
Past Weather Observations for Monday, September 29, 2014

NOTE: This archive is for the closest National Weather Service station to Burnsville. Information may differ from the station used for current weather conditions.

Click here for Long-term Archive

Time Weather Temperature Dewpoint Humidity Pressure Winds Precip Visibility
23:54
Obscured
Fog And Mist
61°F / 16°C 59°F / 15°C 94% 30.04 in
(1017 mb)
Calm - 3/4SM
23:43
Obscured
Fog And Mist
61°F / 16°C 59°F / 15°C 94% 30.04 in
(1017 mb)
Calm - 3/4SM
23:35
Obscured
Fog And Mist
61°F / 16°C 59°F / 15°C 94% 30.04 in
(1017 mb)
SSW 3.5 mph
(SSW 6 kph)
- 3/4SM
23:05
Overcast
Fog And Mist
61°F / 16°C 61°F / 16°C 100% 30.04 in
(1017 mb)
SW 3.5 mph
(SW 6 kph)
- 1 1/4SM
23:00
Overcast
Fog And Mist
61°F / 16°C 61°F / 16°C 100% 30.04 in
(1017 mb)
Calm - 2 1/2SM
22:54
Overcast
Fog And Mist
61°F / 16°C 61°F / 16°C 100% 30.04 in
(1017 mb)
Calm - 4SM
22:44
Overcast
Fog And Mist
61°F / 16°C 61°F / 16°C 100% 30.04 in
(1017 mb)
N 3.5 mph
(N 6 kph)
- 2SM
22:25
Obscured
Fog And Mist
61°F / 16°C 61°F / 16°C 100% 30.04 in
(1017 mb)
Calm - 1SM
22:16
Overcast
Fog And Mist
61°F / 16°C 61°F / 16°C 100% 30.06 in
(1018 mb)
Calm - 1 3/4SM
22:09
Overcast
Fog And Mist
61°F / 16°C 61°F / 16°C 100% 30.06 in
(1018 mb)
Calm - 1 1/4SM
21:54
Obscured
Fog
61°F / 16°C 61°F / 16°C 100% 30.06 in
(1018 mb)
Calm - 1/2SM
21:46
Obscured
Fog
61°F / 16°C 61°F / 16°C 100% 30.06 in
(1018 mb)
Calm - 1/2SM
21:14
Obscured
Fog
61°F / 16°C 61°F / 16°C 100% 30.04 in
(1017 mb)
Calm - 1/4SM
20:54
Mostly Cloudy
Fog And Mist
63°F / 17°C 61°F / 16°C 94% 30.04 in
(1017 mb)
Calm - 3/4SM
20:47
Mostly Cloudy
Fog And Mist
63°F / 17°C 61°F / 16°C 94% 30.04 in
(1017 mb)
Calm - 1SM
20:39
Mostly Cloudy
Fog And Mist
61°F / 16°C 61°F / 16°C 100% 30.04 in
(1017 mb)
Calm - 1 3/4SM
20:28
Overcast
63°F / 17°C 61°F / 16°C 94% 30.04 in
(1017 mb)
Calm - 9SM
20:11
Overcast
63°F / 17°C 61°F / 16°C 94% 30.04 in
(1017 mb)
Calm - 10SM
20:02
Overcast
63°F / 17°C 61°F / 16°C 94% 30.04 in
(1017 mb)
Calm - 10SM
19:54
Overcast
63°F / 17°C 61°F / 16°C 94% 30.04 in
(1017 mb)
Calm - 10SM
18:54
Overcast
63°F / 17°C 61°F / 16°C 94% 30.04 in
(1017 mb)
Calm 0.00 in
(0.00 mm)
10SM
17:54
Overcast
64°F / 18°C 61°F / 16°C 88% 30.04 in
(1017 mb)
S 4.6 mph
(S 7 kph)
- 10SM
17:01
Overcast
64°F / 18°C 61°F / 16°C 88% 30.04 in
(1017 mb)
Calm - 7SM
16:54
Overcast
64°F / 18°C 61°F / 16°C 88% 30.04 in
(1017 mb)
Calm 0.00 in
(0.00 mm)
10SM
15:54
Overcast
64°F / 18°C 61°F / 16°C 88% 30.04 in
(1017 mb)
NNW 4.6 mph
(NNW 7 kph)
0.01 in
(0.25 mm)
7SM
15:34
Overcast
Fog And Mist
64°F / 18°C 61°F / 16°C 88% 30.04 in
(1017 mb)
NW 4.6 mph
(NW 7 kph)
0.01 in
(0.25 mm)
10SM
15:08
Overcast
Light Rain
64°F / 18°C 61°F / 16°C 88% 30.04 in
(1017 mb)
N 4.6 mph
(N 7 kph)
0.01 in
(0.25 mm)
5SM
14:54
Overcast
Light Rain
64°F / 18°C 61°F / 16°C 88% 30.04 in
(1017 mb)
N 5.8 mph
(N 9 kph)
0.00 in
(0.00 mm)
5SM
13:54
Overcast
Light Rain
64°F / 18°C 61°F / 16°C 88% 30.06 in
(1018 mb)
NNW 11.5 mph
(NNW 19 kph)
0.00 in
(0.00 mm)
7SM
13:01
Overcast
66°F / 19°C 61°F / 16°C 83% 30.06 in
(1018 mb)
N 11.5 mph
(N 19 kph)
- 10SM
12:54
Overcast
66°F / 19°C 61°F / 16°C 83% 30.06 in
(1018 mb)
NNW 13.8 mph
(NNW 22 kph)
- 10SM
11:54
Overcast
66°F / 19°C 63°F / 17°C 88% 30.09 in
(1019 mb)
N 5.8 mph
(N 9 kph)
0.00 in
(0.00 mm)
10SM
11:30
Overcast
Light Rain
66°F / 19°C 61°F / 16°C 83% 30.09 in
(1019 mb)
N 4.6 mph
(N 7 kph)
0.00 in
(0.00 mm)
10SM
10:31
Overcast
66°F / 19°C 61°F / 16°C 83% 30.09 in
(1019 mb)
N 5.8 mph
(N 9 kph)
0.00 in
(0.00 mm)
10SM
10:16
Mostly Cloudy
66°F / 19°C 61°F / 16°C 83% 30.09 in
(1019 mb)
N 4.6 mph
(N 7 kph)
0.00 in
(0.00 mm)
10SM
10:02
Overcast
Light Rain
66°F / 19°C 61°F / 16°C 83% 30.09 in
(1019 mb)
N 3.5 mph
(N 6 kph)
0.00 in
(0.00 mm)
10SM
09:54
Overcast
Light Rain
66°F / 19°C 61°F / 16°C 83% 30.09 in
(1019 mb)
Calm 0.00 in
(0.00 mm)
10SM
08:54
Overcast
64°F / 18°C 61°F / 16°C 88% 30.09 in
(1019 mb)
Calm - 10SM
08:21
Overcast
63°F / 17°C 61°F / 16°C 94% 30.09 in
(1019 mb)
Calm - 10SM
08:04
Overcast
63°F / 17°C 61°F / 16°C 94% 30.09 in
(1019 mb)
Calm - 10SM
07:54
Overcast
63°F / 17°C 61°F / 16°C 94% 30.09 in
(1019 mb)
Calm 0.00 in
(0.00 mm)
10SM
06:54
Overcast
63°F / 17°C 61°F / 16°C 94% 30.09 in
(1019 mb)
Calm 0.02 in
(0.51 mm)
10SM
05:54
Overcast
Light Rain
63°F / 17°C 61°F / 16°C 94% 30.09 in
(1019 mb)
Calm 0.01 in
(0.25 mm)
10SM
05:46
Overcast
Light Rain
63°F / 17°C 61°F / 16°C 94% 30.09 in
(1019 mb)
Calm 0.01 in
(0.25 mm)
10SM
04:54
Mostly Cloudy
Light Rain
63°F / 17°C 61°F / 16°C 94% 30.09 in
(1019 mb)
Calm 0.00 in
(0.00 mm)
9SM
03:54
Overcast
63°F / 17°C 61°F / 16°C 94% 30.09 in
(1019 mb)
S 3.5 mph
(S 6 kph)
0.00 in
(0.00 mm)
10SM
02:54
Overcast
Light Rain
63°F / 17°C 61°F / 16°C 94% 30.12 in
(1020 mb)
Calm 0.02 in
(0.51 mm)
10SM
01:54
Overcast
Light Rain
63°F / 17°C 61°F / 16°C 94% 30.12 in
(1020 mb)
Calm 0.00 in
(0.00 mm)
10SM
00:54
Overcast
63°F / 17°C 59°F / 15°C 88% 30.12 in
(1020 mb)
Calm 0.00 in
(0.00 mm)
10SM
Time Weather Temperature Dewpoint Humidity Pressure Winds Precip Visibility


Weather for websites

WeatherForYou.com, LLC is not responsible for any damages or problems caused by this service. Current weather conditions are obtained from the closest station including government and personal stations which may have varying degrees of accuracy. Weather forecasts are derived from the NOAA NDFD. Like all things, this site belongs to Jesus Christ... He just trusts me to maintain it. If you have any questions or comments email webmaster@weatherforyou.com

Copyright © 2014, WeatherForYou.com LLC. All rights reserved.